Regional Weather Roundup
Issued by NWS

Home | Current Version | Previous Version | Graphics & Text | Print | Product List | Glossary Off
Versions: 1 2 3 4 5 6 7 8 9 10 11 12 13 14 15 16 17 18 19 20 21 22 23 24 25 26 27 28 29 30 31 32 33 34 35 36 37 38 39 40 41 42 43 44 45 46 47 48 49 50

000
ASUS43 KMPX 280610
RWRMN
WEATHER ROUNDUP FOR MINNESOTA
NATIONAL WEATHER SERVICE TWIN CITIES/CHANHASSEN MN
1200 AM CST FRI NOV 28 2014


NOTE: "FAIR" INDICATES FEW OR NO CLOUDS BELOW 12,000 FEET WITH NO
SIGNIFICANT WEATHER AND/OR OBSTRUCTIONS TO VISIBILITY. N/A MEANS
CURRENT SKY AND/OR WEATHER CONDITIONS ARE NOT AVAILABLE.

MNZ060>063-068>070-280700-
   Twin Cities Metro

CITY           SKY/WX    TMP DP  RH WIND       PRES   REMARKS
TWIN CITIES    LGT SNOW   6   2  83 SE8       30.27F VSB 1   WCI  -7
6HR MIN TEMP:   5; 6HR MAX TEMP:   7; 6HR PCP:  0.02;

ST PAUL        LGT SNOW   8   2  76 SE9       30.30F WCI  -5
CRYSTAL        LGT SNOW   8   2  76 SE6       30.27F VSB 1   WCI  -2
BLAINE         LGT SNOW   9   3  78 SE8       30.27F WCI  -4
LAKEVILLE      LGT SNOW   5   1  85 SE5       30.26F WCI  -4
EDEN PRAIRIE   LGT SNOW   6   2  83 SE8       30.25F FOG     WCI  -7
6HR MIN TEMP:   5; 6HR MAX TEMP:   7; 6HR PCP:  0.02;

SOUTH ST PAUL  LGT SNOW   8   2  76 SE3       30.29F
LAKE ELMO      LGT SNOW  10   3  72 SE5       30.28F WCI   2
$$
MNZ001>005-007-008-013>017-022>024-027-028-280700-
   Northwest Minnesota

CITY           SKY/WX    TMP DP  RH WIND       PRES   REMARKS
BEMIDJI        FLURRIES   7  -2  65 S5        30.14R WCI  -2
HALLOCK        FLURRIES   9   3  78 S10       30.12F WCI  -6
ROSEAU         CLOUDY     9   0  66 S5        30.15F WCI   0
WARROAD        MOCLDY     7   0  72 CALM      30.15F
THIEF RVR FALL CLOUDY     9   3  78 S7        30.11F WCI  -3
CROOKSTON      CLOUDY    10   5  79 S12       30.12F WCI  -4
FOSSTON        FLURRIES   7   1  78 SE7       30.11F WCI  -5
DETROIT LAKES  FLURRIES   9   5  85 SE13      30.11S WCI  -7
MOORHEAD       LGT SNOW  10   9  92 SE9       30.10F WCI  -2
PARK RAPIDS    FLURRIES   5   1  83 SE9       30.13S WCI  -9
MAHNOMEN       CLOUDY     8   2  77 SE8       30.10F WCI  -4
$$
MNZ006-009>011-018-025>026-280700-
   North Central Minnesota

CITY           SKY/WX    TMP DP  RH WIND       PRES   REMARKS
BAUDETTE       CLOUDY     4  -3  73 S3        30.15F
FLAG ISLAND    MOCLDY     5  -2  72 S8        30.15F WCI  -8
INTL FALLS     CLOUDY     2  -6  69 CALM      30.17F
6HR MIN TEMP:  -5; 6HR MAX TEMP:   3;

WASKISH        CLOUDY     7   1  78 CALM      30.16S
BIG FORK       CLOUDY     7  -2  66 CALM      30.15F
LONGVILLE      LGT SNOW   7   0  72 S6        30.16F WCI  -3
GRAND RAPIDS   CLOUDY     7  -2  66 S8        30.15R WCI  -6
CRANE LAKE     CLOUDY     0  -4  85 CALM      30.21F
ORR            CLOUDY     3  -6  66 CALM      30.14F
COOK           CLOUDY     3  -2  78 CALM      30.17F
WALKER         LGT SNOW   6  -1  74 S6        30.14S WCI  -5
$$
MNZ012-019>021-037-280700-
   Northeast Minnesota

CITY           SKY/WX    TMP DP  RH WIND       PRES   REMARKS
DULUTH         CLOUDY     6  -4  63 S7        30.18F WCI  -6
6HR MIN TEMP:   1; 6HR MAX TEMP:   7;

ELY            MOCLDY     1  -4  78 CALM      30.18F
HIBBING        CLOUDY     6  -4  63 VRB3      30.18S
EVELETH        CLOUDY     5  -2  72 CALM      30.19S
DULUTH HARBOR  CLOUDY     9  -2  61 CALM      30.28F
TWO HARBORS    MOCLDY    10   0  61 CALM      30.21S
SILVER BAY     CLOUDY     9  -2  61 CALM      30.21S
GRAND MARAIS     N/A      8  -6  52 NW5       30.27S WCI   0
G MARAIS ARPRT PTCLDY    -6 -11  77 CALM      30.15F
$$
MNZ029>031-032-039>041-046>048-054>057-064-280700-
   West Central Minnesota

CITY           SKY/WX    TMP DP  RH WIND       PRES   REMARKS
FERGUS FALLS   LGT SNOW   9   3  78 SE13      30.13S WCI  -7
WHEATON        CLOUDY     7   1  78 SE22G28   30.09F WCI -14
MORRIS         CLOUDY     7   3  85 SE22      30.07F WCI -14
ALEXANDRIA     LGT SNOW   5   1  83 SE15      30.09F FOG     WCI -13
ELBOW LAKE     LGT SNOW   7   3  84 SE16G24   30.07F WCI -11
WADENA         LGT SNOW   5   1  85 SE10      30.12F WCI -10
GLENWOOD       LGT SNOW   5   1  85 E16       30.11F WCI -14
APPLETON       CLOUDY     9   3  78 SE17      30.09F WCI -10
BENSON         FLURRIES   7   3  85 SE15G22   30.10F WCI -11
ORTONVILLE     CLOUDY     7   1  78 SE18      30.06F WCI -12
MADISON        CLOUDY    12   7  79 SE18      30.09F WCI  -5
WILLMAR        LGT SNOW   7   1  78 SE18      30.15F WCI -12
$$
MNZ033>034-036-042>043-049>051-058-059-280700-
   Central Minnesota

CITY           SKY/WX    TMP DP  RH WIND       PRES   REMARKS
ST CLOUD       LGT SNOW   7   1  76 SE10      30.22F WCI  -8
6HR MIN TEMP:   7; 6HR MAX TEMP:   8; 6HR PCP:  0.05;

SAUK CENTRE    LGT SNOW   4   1  84 E10       30.16F VSB 1   WCI -11
PAYNESVILLE    LGT SNOW   3   0  88 NE9       30.18F VSB 1   WCI -12
AITKIN         LGT SNOW  10   1  67 S8        30.18F WCI  -1
PINE RIVER     LGT SNOW   7   1  78 SE7       30.19F WCI  -5
BRAINERD       LGT SNOW   5   2  87 S7        30.18F VSB 1   WCI  -7
STAPLES        LGT SNOW   3   1  92 SE6       30.15F WCI  -8
LONG PRAIRIE   LGT SNOW   5   1  85 SE8       30.15F WCI  -8
LITTLE FALLS   LGT SNOW   7   1  78 SE7       30.19F VSB 1   WCI  -5
LITCHFIELD     LGT SNOW   7   3  85 E14       30.18F WCI -10
BUFFALO        LGT SNOW   6   2  84 SE6       30.26F WCI  -5
MAPLE LAKE     LGT SNOW   7   4  87 SE6       30.23F WCI  -3
$$
MNZ037-044-045-052-053-280700-
   East Central Minnesota

CITY           SKY/WX    TMP DP  RH WIND       PRES   REMARKS
PRINCETON      LGT SNOW   9   3  78 CALM      30.24F
MORA             N/A    N/A N/A N/A MISG        N/A
CAMBRIDGE      LGT SNOW  10   1  67 SE6       30.23F WCI   1
RUSH CITY      CLOUDY     8   2  75 S8        30.26F WCI  -4
MOOSE LAKE     CLOUDY     9   0  66 S6        30.20F WCI  -1
HINCKLEY       LGT SNOW  10   5  79 CALM      30.24F
CLOQUET        CLOUDY     7  -4  61 S7        30.19F WCI  -5
MCGREGOR       CLOUDY     9   1  72 S6        30.20S WCI  -1
$$
MNZ071>073-080-081-089-090-097-098-280700-
   Southwest Minnesota

CITY           SKY/WX    TMP DP  RH WIND       PRES   REMARKS
MONTEVIDEO     CLOUDY     7   1  78 S15       30.12F WCI -11
GRANITE FALLS  CLOUDY     7   1  77 E16       30.13F WCI -11
CANBY          CLOUDY    13   7  77 SE13      30.06F WCI  -1
MARSHALL       CLOUDY    10   3  72 SE14      30.05F WCI  -5
REDWOOD FALLS  CLOUDY     6   0  76 SE16      30.13F WCI -12
OLIVIA         FLURRIES   9   1  72 SE16G23   30.13F WCI  -9
PIPESTONE      CLOUDY    14   9  79 S14G20    29.99F WCI  -1
WINDOM         CLOUDY    10   3  72 SE14      30.09F WCI  -5
WORTHINGTON    PTCLDY    12   5  73 SE15      30.05R WCI  -4
JACKSON        CLOUDY    10   3  72 SE14      30.11F WCI  -5
TRACY          CLOUDY    12   6  74 SE13      30.07F WCI  -3
SLAYTON        CLOUDY    12   7  79 SE17      30.03F WCI  -5
$$
MNZ065>067-074>077-082>085-091>093-280700-
   South Central Minnesota

CITY           SKY/WX    TMP DP  RH WIND       PRES   REMARKS
MANKATO        CLOUDY     9   1  72 SE15      30.19F WCI  -8
NEW ULM        FLURRIES   5   1  85 E10       30.18F WCI -10
ST JAMES       FLURRIES  10   3  72 SE16      30.16F WCI  -7
FAIRMONT       CLOUDY    10   1  67 SE18      30.13F WCI  -8
GLENCOE        LGT SNOW   6   3  87 E13       30.20F WCI -10
FARIBAULT      LGT SNOW   7   3  85 E7        30.25F WCI  -5
OWATONNA       LGT SNOW   9   3  78 SE10      30.23F WCI  -6
WASECA         LGT SNOW   9   3  78 E13       30.23F WCI  -7
ALBERT LEA     CLOUDY     9   3  78 SE10      30.22F WCI  -6
$$
MNZ078>079-086>088-094>096-280700-
   Southeast Minnesota

CITY           SKY/WX    TMP DP  RH WIND       PRES   REMARKS
ROCHESTER      LGT SNOW   8   2  76 S9        30.25F WCI  -5
6HR MIN TEMP:  -3; 6HR MAX TEMP:   8; 6HR PCP: TRACE;

RED WING       LGT SNOW  10   0  61 SE5       30.30F WCI   2
STANTON        LGT SNOW   9   4  80 CALM      30.27F
DODGE CENTER   LGT SNOW   9   5  85 CALM      30.24F
WINONA         MOCLDY    12   3  67 SE3       30.34F
AUSTIN         LGT SNOW   9   1  72 S6        30.25F WCI  -1
PRESTON        LGT SNOW   8   1  73 S9        30.27S WCI  -5
$$
ABBREVIATIONS USED IN REMARKS
   TC - TEMPERATURES IN CELSIUS
  WCI - WIND CHILL INDEX
   HX - HEAT INDEX
  VSB - VISIBILITY
$$


USA.gov is the U.S. government's official web portal to all federal, state and local government web resources and services.